Voltar ao catálogo

SL-16 DEB

AtivoLEO
NORAD 16390·DEBRIS·🇷🇺 Russia

Lançado Oct 22, 1985 de Baikonur Cosmodrome

Loading…

Próximas Passagens (próximas 24 horas)

TLE

AtualizadoSource: Space-Track

Época: Sep 14, 2026, 07:55 UTC

1 16390U 85097D   26257.33004883  .00000072  00000-0  10813-3 0  9994
2 16390  70.9741 132.6436 0208281 292.2165  65.6957 13.72756548 47065

Acompanhe SL-16 DEB em tempo real com AllMySat

Download on the App Store